Location: DARK SKY Beskydy - Park tmavé oblohy, www.darkskybeskydy.cz
(49.4926°N, 18.5016°E)
Time: 03:27:14
(UTC+02:00)

A-11 Canister half - Pass Details

Date: 23 February 2024
Orbit: 1513 x 1686 km, 47.2° (Epoch: 24 April)

Event Time Altitude Azimuth Distance (km) Brightness Sun altitude
Rises 23:47:38 0° 182° (S) 4,924 - -50.2°
Reaches altitude 10° 23:52:11 10° 165° (SSE) 3,942 - -50.2°
Maximum altitude 23:58:16 18° 127° (SE) 3,334 - -50.2°
Drops below altitude 10° 00:04:19 10° 89° (E) 3,921 - -50.2°
Exits shadow 00:05:38 - 83° (E) 4,176 11.3 -50.2°
Sets 00:08:46 0° 72° (ENE) 4,889 11.8 -50.2°
